Wind_Speed
15 16 17 18 21 21 21 22 20 18 18 19 15 13 11 9 9 10 11 10 13 11
14 16 16 17 18 20 21 22 21 21 19 13 11 9 10 11 12 13 15 13 12 12
16 16 17 18 21 21 20 22 21 19 16 14 12 13 18 21 20 16 15 14 13 14
15 15 17 19 19 18 18 18 17 15 14 14 17 21 18 15 18 17 17 17 18 18
17 18 19 17 16 17 18 18 18 19 19 19 18 17 18 18 19 19 19 20 21 22
18 19 17 15 16 15 15 17 18 19 20 22 22 22 22 22 21 19 21 22 24 23
16 15 13 12 15 16 17 19 20 20 21 21 22 22 22 18 20 24 25 23 23 22
14 15 15 15 16 17 18 19 19 19 20 20 21 17 13 16 21 23 25 26 26 26
15 14 15 15 16 17 18 18 19 20 21 20 21 17 16 17 20 25 26 27 27 27
12 15 15 16 17 17 18 19 20 21 20 20 21 16 19 20 21 25 26 27 27 27
14 16 16 16 17 17 19 20 21 20 19 21 23 19 19 18 24 24 26 26 26 26
16 17 16 17 17 19 20 20 20 18 19 23 24 24 16 21 23 23 25 25 24 24
16 16 15 16 18 19 21 21 18 16 19 20 23 19 20 17 21 23 23 23 23 24
16 14 14 15 19 21 22 20 12 14 18 21 19 20 19 14 18 22 24 24 24 23
Wind_Direction
323 324 326 329 326 320 319 319 321 315 313 313 322 328 334 330 337 340 323 327 315 317
327 327 325 323 324 327 327 324 322 317 314 320 330 337 339 326 314 301 294 293 288 286
320 325 328 331 331 329 325 323 320 322 324 330 336 329 319 301 293 286 280 276 279 276
325 325 325 322 325 331 325 313 321 323 321 313 310 309 303 297 293 287 284 285 283 289
318 316 316 326 329 318 312 314 314 311 310 310 311 308 305 307 305 299 297 295 299 297
317 319 323 322 319 313 316 316 312 308 308 308 307 307 304 300 292 289 287 291 292 294
322 319 312 309 309 313 317 316 315 314 311 310 310 308 305 309 312 304 298 291 285 286
308 305 317 311 315 315 314 314 316 314 312 312 312 316 328 315 310 307 302 298 293 287
301 313 306 310 312 314 314 317 317 315 313 315 314 316 319 318 311 305 300 297 294 292
303 295 302 309 313 314 316 315 315 314 315 318 315 313 322 318 315 305 298 294 294 293
293 292 298 306 309 316 312 315 314 315 319 317 314 331 324 327 317 305 300 297 296 294
295 285 301 305 316 309 312 312 316 322 321 316 313 315 326 323 316 310 307 302 300 299
292 294 297 308 310 309 311 316 324 313 314 309 308 313 318 315 315 311 305 305 303 296
289 293 301 302 304 312 319 325 330 316 314 310 314 314 321 322 319 311 311 307 302 297
Height
825 824 823 822 822 819 815 811 807 805 802 799 797 796 795 793 791 791 790 787 788 784
824 824 823 821 818 815 812 809 805 803 800 798 797 796 795 794 791 790 789 786 784 781
824 823 821 818 816 813 811 809 805 803 802 800 798 797 794 793 790 787 785 782 780 778
822 821 819 817 814 813 812 809 806 803 800 799 796 794 791 789 786 783 781 779 776 773
820 818 816 814 814 813 810 807 804 802 799 797 794 792 789 786 783 780 777 775 773 770
817 816 815 814 813 811 808 804 801 798 795 793 790 787 784 781 778 776 774 771 769 767
816 816 813 811 810 807 804 801 799 796 794 791 788 784 781 778 777 774 770 767 765 763
814 812 810 809 806 804 802 799 797 794 792 789 786 781 780 780 778 774 769 764 760 757
811 811 808 806 803 801 799 797 795 792 789 786 783 780 778 777 775 771 766 761 756 753
807 807 805 803 800 799 797 795 792 789 786 784 782 777 775 773 772 768 762 757 752 748
804 803 802 799 797 796 794 791 788 786 783 782 779 776 773 770 768 763 758 753 749 746
801 801 798 796 795 793 790 787 784 783 782 780 777 774 770 768 764 759 755 750 746 742
797 796 795 794 792 789 786 782 781 780 780 777 773 770 767 764 761 757 752 747 742 738
793 792 792 791 788 785 782 781 780 779 776 773 769 766 764 761 758 753 748 743 738 733